GW5240 Weather Reports


time (UTC)temp
C
wind
direction
speed
KPH
gust
KPH
rain 1hr
cm
rain 24hr
cm
rain mn
cm
humidity
%
barometer
mb
20260904032701 25 161 0.0 0.0 0.00 0.03 0.03 82 1009.4
20260904032159 26 154 0.0 0.0 0.00 0.03 0.03 81 1009.4
20260904031700 26 167 0.0 0.0 0.00 0.03 0.03 81 1009.4
20260904031155 25 161 0.0 0.0 0.00 0.03 0.03 81 1009.5
20260904030651 26 162 0.0 0.0 0.00 0.03 0.03 81 1009.6
20260904030146 26 157 0.0 0.0 0.00 0.03 0.03 81 1009.5
20260904025642 26 137 0.0 3.2 0.00 0.03 0.03 81 1009.6
20260904025136 26 166 0.0 0.0 0.00 0.03 0.03 80 1009.6
20260904024632 26 149 0.0 0.0 0.00 0.03 0.03 80 1009.5
20260904024127 26 167 0.0 0.0 0.00 0.03 0.03 79 1009.5
20260904023623 26 165 0.0 0.0 0.00 0.03 0.03 79 1009.5
20260904023119 26 166 0.0 0.0 0.00 0.03 0.03 79 1009.5
20260904022614 26 173 1.6 3.2 0.00 0.03 0.03 79 1009.3
20260904022110 26 167 0.0 0.0 0.00 0.03 0.03 79 1009.4
20260904021605 26 167 0.0 0.0 0.00 0.03 0.03 78 1009.5
20260904021100 26 164 0.0 0.0 0.00 0.03 0.03 78 1009.4
20260904020555 26 164 0.0 0.0 0.00 0.03 0.03 78 1009.3
20260904020045 26 164 0.0 0.0 0.00 0.03 0.03 77 1009.5
20260904015540 26 155 0.0 0.0 0.00 0.03 0.03 76 1009.4
20260904015038 26 158 0.0 0.0 0.00 0.03 0.03 76 1009.2
20260904014532 26 166 0.0 3.2 0.00 0.03 0.03 76 1009.3
20260904014028 27 174 0.0 0.0 0.00 0.03 0.03 75 1009.3
20260904013524 27 169 0.0 0.0 0.00 0.03 0.03 75 1008.8
20260904013021 27 39 1.6 3.2 0.00 0.03 0.03 75 1009.2
20260904012520 27 167 0.0 0.0 0.00 0.03 0.03 74 1008.8
20260904012015 27 173 0.0 0.0 0.00 0.03 0.03 73 1008.8
20260904011509 27 170 0.0 0.0 0.00 0.03 0.03 73 1008.9
20260904011004 27 166 0.0 0.0 0.00 0.03 0.03 72 1008.7
20260904010501 28 164 0.0 0.0 0.00 0.03 0.03 71 1008.7
20260904010000 28 152 3.2 3.2 0.00 0.03 0.03 71 1008.6
20260904005456 28 173 0.0 0.0 0.00 0.03 0.03 71 1008.7
20260904004951 28 176 1.6 3.2 0.00 0.03 0.03 71 1008.6
20260904004447 28 163 0.0 0.0 0.00 0.03 0.03 70 1008.5
20260904003947 28 168 0.0 3.2 0.00 0.03 0.03 69 1008.7
20260904003443 28 168 0.0 3.2 0.00 0.03 0.03 69 1008.6
20260904002938 28 175 0.0 3.2 0.00 0.03 0.03 69 1008.6
20260904002435 28 113 0.0 3.2 0.00 0.03 0.03 68 1008.7
20260904001933 28 173 3.2 4.8 0.00 0.03 0.03 68 1008.9
20260904001429 28 166 0.0 0.0 0.00 0.03 0.03 68 1008.7
20260904000923 29 222 4.8 8.0 0.00 0.03 0.03 67 1008.9
20260904000425 29 171 3.2 4.8 0.00 0.03 0.03 66 1008.7
20260903235919 29 140 4.8 8.0 0.00 0.03 0.03 65 1008.8
20260903235415 29 322 3.2 4.8 0.00 0.03 0.03 65 1008.6
20260903234914 29 145 1.6 3.2 0.00 0.03 0.03 65 1008.8
20260903234410 30 173 1.6 3.2 0.00 0.03 0.03 64 1008.7
20260903233906 30 169 3.2 4.8 0.00 0.03 0.03 64 1008.7
20260903233402 30 97 0.0 3.2 0.00 0.03 0.03 64 1008.7
20260903232901 30 146 3.2 4.8 0.00 0.03 0.03 64 1008.7
20260903232356 30 169 1.6 3.2 0.00 0.03 0.03 63 1008.4
20260903231856 30 126 3.2 4.8 0.00 0.03 0.03 62 1008.4
20260903231351 30 179 1.6 3.2 0.00 0.03 0.03 62 1008.4
20260903230846 30 190 0.0 3.2 0.00 0.03 0.03 62 1008.1
20260903230341 30 192 9.7 14.5 0.00 0.03 0.03 61 1007.9
20260903225838 30 147 3.2 4.8 0.00 0.03 0.03 61 1008.0
20260903225333 30 176 0.0 3.2 0.00 0.03 0.03 60 1008.1
20260903224830 30 203 1.6 4.8 0.00 0.03 0.03 60 1008.1
20260903224325 31 84 8.0 14.5 0.00 0.03 0.03 59 1008.0
20260903223821 31 152 3.2 4.8 0.00 0.03 0.03 59 1008.0
20260903223314 31 168 3.2 3.2 0.00 0.03 0.03 59 1008.0
20260903222809 31 159 6.4 11.3 0.00 0.03 0.03 58 1008.1
20260903222308 31 198 3.2 4.8 0.00 0.03 0.03 58 1008.3
20260903221803 31 233 3.2 4.8 0.00 0.03 0.03 57 1008.2
20260903221301 31 192 6.4 8.0 0.00 0.03 0.03 58 1008.2
20260903220800 30 165 3.2 4.8 0.00 0.03 0.03 59 1008.2
20260903220254 31 79 6.4 8.0 0.00 0.03 0.03 58 1008.1
20260903215747 31 158 3.2 4.8 0.00 0.03 0.03 58 1008.4
20260903215244 31 197 6.4 8.0 0.00 0.03 0.03 58 1008.3
20260903214741 31 147 8.0 8.0 0.00 0.03 0.03 58 1008.2
20260903214239 31 174 4.8 4.8 0.00 0.03 0.03 59 1008.3
20260903213732 31 189 6.4 8.0 0.00 0.03 0.03 58 1008.2
20260903213228 31 181 6.4 8.0 0.00 0.03 0.03 58 1008.5
20260903212724 31 191 6.4 8.0 0.00 0.03 0.03 60 1008.6
20260903212220 30 182 3.2 3.2 0.00 0.03 0.03 60 1008.7
20260903211718 30 167 1.6 3.2 0.00 0.03 0.03 62 1008.6
20260903211215 29 164 3.2 4.8 0.18 0.03 0.03 65 1008.6
20260903210711 29 174 0.0 3.2 0.18 0.03 0.03 67 1008.4
20260903210207 28 159 4.8 11.3 0.00 0.00 0.00 65 1008.3
20260903205701 30 180 9.7 16.1 0.00 0.00 0.00 62 1008.2
20260903205200 30 170 4.8 11.3 0.00 0.00 0.00 59 1008.8
20260903204656 30 179 3.2 3.2 0.00 0.00 0.00 59 1009.2
20260903204152 30 180 6.4 11.3 0.00 0.00 0.00 58 1008.9
20260903203647 30 184 3.2 4.8 0.00 0.00 0.00 57 1008.9
20260903203142 31 179 3.2 3.2 0.00 0.00 0.00 56 1008.8
20260903202637 32 187 1.6 3.2 0.00 0.00 0.00 53 1009.0
20260903202133 32 69 6.4 11.3 0.00 0.00 0.00 53 1009.0
20260903201632 32 181 1.6 3.2 0.00 0.00 0.00 54 1008.8
20260903201131 32 165 3.2 4.8 0.00 0.00 0.00 54 1009.0
20260903200626 32 181 1.6 3.2 0.00 0.00 0.00 55 1009.0
20260903200121 32 195 3.2 3.2 0.00 0.00 0.00 55 1009.3
20260903195617 32 154 3.2 3.2 0.00 0.00 0.00 60 1008.9
20260903195113 31 82 11.3 19.3 0.00 0.00 0.00 61 1009.0
20260903194609 32 221 3.2 4.8 0.00 0.00 0.00 61 1009.2
20260903194108 32 207 4.8 4.8 0.00 0.00 0.00 62 1009.6
20260903193605 31 193 3.2 3.2 0.00 0.00 0.00 64 1009.5
20260903193100 30 69 4.8 4.8 0.00 0.00 0.00 65 1009.6
20260903192557 30 182 3.2 4.8 0.00 0.00 0.00 68 1009.6
20260903192057 29 109 1.6 3.2 0.00 0.00 0.00 71 1009.6
20260903191553 30 188 1.6 3.2 0.00 0.00 0.00 69 1009.3
20260903191048 30 188 1.6 3.2 0.00 0.00 0.00 69 1009.2
20260903190547 28 136 3.2 3.2 0.00 0.00 0.00 72 1009.5
20260903190047 28 83 4.8 4.8 0.00 0.00 0.00 73 1010.0
20260903185542 27 155 0.0 0.0 0.00 0.00 0.00 77 1010.1
20260903185038 26 120 3.2 4.8 0.00 0.00 0.00 79 1010.2
20260903184534 26 168 1.6 3.2 0.00 0.00 0.00 79 1010.2
20260903184029 26 149 0.0 0.0 0.00 0.00 0.00 79 1010.1
20260903183528 26 163 0.0 0.0 0.00 0.00 0.00 78 1010.3
20260903183023 26 151 0.0 3.2 0.00 0.00 0.00 77 1010.1
20260903182522 26 150 0.0 0.0 0.00 0.00 0.00 77 1010.2
20260903182019 26 148 0.0 0.0 0.00 0.00 0.00 76 1010.3
20260903181517 26 163 1.6 3.2 0.00 0.00 0.00 74 1010.3
20260903181017 26 168 0.0 0.0 0.00 0.00 0.00 74 1010.2
20260903180513 26 160 0.0 0.0 0.00 0.00 0.00 73 1010.1
20260903180012 26 206 0.0 3.2 0.00 0.00 0.00 73 1010.2
20260903175511 26 179 0.0 0.0 0.00 0.00 0.00 72 1010.4
20260903175010 26 166 0.0 3.2 0.00 0.00 0.00 73 1010.1
20260903174505 27 181 0.0 3.2 0.00 0.00 0.00 72 1010.2
20260903174000 27 166 0.0 0.0 0.00 0.00 0.00 70 1010.1
20260903173455 27 164 0.0 3.2 0.00 0.00 0.00 68 1010.2
20260903172951 28 81 3.2 4.8 0.00 0.00 0.00 67 1010.2
20260903172446 28 148 4.8 4.8 0.00 0.00 0.00 65 1010.5
20260903171941 29 177 3.2 3.2 0.00 0.00 0.00 65 1010.4
20260903171436 29 135 1.6 3.2 0.00 0.00 0.00 64 1010.5
20260903170936 28 214 4.8 8.0 0.00 0.00 0.00 67 1010.6
20260903170431 28 163 3.2 4.8 0.00 0.00 0.00 68 1010.8
20260903165930 27 156 0.0 3.2 0.00 0.00 0.00 69 1010.9
20260903165424 27 171 0.0 0.0 0.00 0.00 0.00 68 1010.9
20260903164918 28 180 3.2 3.2 0.00 0.00 0.00 66 1010.9
20260903164414 29 151 6.4 11.3 0.00 0.00 0.00 63 1010.8
20260903163913 30 175 0.0 0.0 0.00 0.00 0.00 63 1010.8
20260903163409 29 168 3.2 3.2 0.00 0.00 0.00 61 1010.8
20260903162905 29 158 6.4 11.3 0.00 0.00 0.00 62 1010.9
20260903162402 27 178 0.0 0.0 0.00 0.00 0.00 68 1010.8
20260903161857 26 148 3.2 4.8 0.00 0.00 0.00 68 1010.9
20260903161352 26 176 1.6 3.2 0.00 0.00 0.00 69 1010.7
20260903160848 27 104 1.6 3.2 0.00 0.00 0.00 68 1010.7
20260903160347 27 145 0.0 0.0 0.00 0.00 0.00 66 1010.8
20260903155845 28 164 1.6 3.2 0.00 0.00 0.00 64 1010.9
20260903155341 28 129 0.0 0.0 0.00 0.00 0.00 64 1010.7
20260903154837 28 160 0.0 3.2 0.00 0.00 0.00 64 1010.7
20260903154333 28 166 0.0 0.0 0.00 0.00 0.00 64 1010.6
20260903153833 27 119 3.2 4.8 0.00 0.00 0.00 65 1010.7
20260903153329 27 182 3.2 4.8 0.00 0.00 0.00 68 1010.7
20260903152825 27 165 4.8 4.8 0.00 0.00 0.00 67 1010.9
20260903152320 27 174 0.0 3.2 0.00 0.00 0.00 68 1010.9
20260903151815 28 176 3.2 3.2 0.00 0.00 0.00 65 1011.0
20260903151311 28 157 3.2 3.2 0.00 0.00 0.00 66 1010.8
20260903150812 27 205 3.2 4.8 0.00 0.00 0.00 66 1010.5
20260903150311 27 186 3.2 3.2 0.00 0.00 0.00 67 1010.6
20260903145806 27 171 0.0 0.0 0.00 0.00 0.00 67 1010.6
20260903145305 27 138 1.6 3.2 0.00 0.00 0.00 68 1010.5
20260903144800 27 139 3.2 3.2 0.00 0.00 0.00 68 1010.6
20260903144256 26 157 3.2 3.2 0.00 0.00 0.00 70 1010.6
20260903143752 26 124 0.0 0.0 0.00 0.00 0.00 72 1010.7
20260903143248 25 161 0.0 0.0 0.00 0.00 0.00 73 1010.7
20260903142743 25 149 3.2 3.2 0.00 0.00 0.00 72 1010.8
20260903142239 25 136 0.0 3.2 0.00 0.00 0.00 74 1010.6
20260903141735 25 165 3.2 3.2 0.00 0.00 0.00 74 1010.7
20260903141230 25 190 3.2 3.2 0.00 0.00 0.00 75 1010.8
20260903140725 25 167 0.0 0.0 0.00 0.00 0.00 77 1010.8
20260903140220 24 194 1.6 3.2 0.00 0.00 0.00 77 1010.8
20260903135716 24 171 0.0 0.0 0.00 0.00 0.00 78 1010.7
20260903135212 24 183 0.0 3.2 0.00 0.00 0.00 78 1010.9
20260903134710 24 167 0.0 3.2 0.00 0.00 0.00 79 1010.9
20260903134206 23 166 0.0 0.0 0.00 0.00 0.00 81 1010.9
20260903133704 23 159 0.0 0.0 0.00 0.00 0.00 81 1011.0
20260903133200 23 167 0.0 0.0 0.00 0.00 0.00 82 1011.0
20260903132700 23 152 1.6 3.2 0.00 0.00 0.00 83 1011.2
20260903132200 23 174 0.0 3.2 0.00 0.00 0.00 83 1010.9
20260903131655 23 167 0.0 0.0 0.00 0.00 0.00 84 1010.8
20260903131155 23 162 0.0 0.0 0.00 0.00 0.00 84 1010.8
20260903130650 23 173 1.6 3.2 0.00 0.00 0.00 84 1010.7
20260903130149 23 142 3.2 3.2 0.00 0.00 0.00 85 1010.7
20260903125648 23 169 0.0 3.2 0.00 0.00 0.00 85 1010.9
20260903125143 23 160 0.0 0.0 0.00 0.00 0.00 85 1010.7
20260903124638 23 193 4.8 4.8 0.00 0.00 0.00 85 1010.6
20260903124137 23 161 0.0 0.0 0.00 0.00 0.00 84 1010.3
20260903123631 23 160 0.0 0.0 0.00 0.00 0.00 85 1010.1
20260903123131 23 148 0.0 0.0 0.00 0.00 0.00 85 1010.0
20260903122630 23 156 0.0 0.0 0.00 0.00 0.00 85 1010.2
20260903122130 23 149 0.0 0.0 0.00 0.00 0.00 85 1010.2
20260903121629 23 149 0.0 0.0 0.00 0.00 0.00 85 1010.2
20260903121125 23 169 0.0 0.0 0.00 0.00 0.00 85 1010.2
20260903120624 23 164 0.0 0.0 0.00 0.00 0.00 84 1010.4
20260903120119 23 175 0.0 0.0 0.00 0.00 0.00 85 1010.4
20260903115617 23 170 0.0 0.0 0.00 0.00 0.00 85 1010.6
20260903115112 23 154 1.6 3.2 0.00 0.00 0.00 87 1010.6
20260903114607 23 185 0.0 3.2 0.00 0.00 0.00 89 1010.8
20260903114103 22 173 0.0 0.0 0.00 0.00 0.00 90 1010.6
20260903113558 22 168 1.6 3.2 0.00 0.00 0.00 91 1010.8
20260903113054 22 161 0.0 0.0 0.00 0.00 0.00 91 1010.6
20260903112550 22 161 0.0 0.0 0.00 0.00 0.00 91 1010.7
20260903112050 22 170 0.0 0.0 0.00 0.00 0.00 91 1010.8
20260903111550 22 170 0.0 0.0 0.00 0.00 0.00 91 1010.6
20260903111046 22 170 0.0 0.0 0.00 0.00 0.00 91 1010.5
20260903110542 22 160 0.0 0.0 0.00 0.00 0.00 91 1010.7
20260903110041 22 163 0.0 0.0 0.00 0.00 0.00 91 1010.7
20260903105537 22 163 0.0 0.0 0.00 0.00 0.00 91 1010.7
20260903105031 22 157 0.0 0.0 0.00 0.00 0.00 91 1010.7
20260903104525 22 145 0.0 0.0 0.00 0.00 0.00 91 1010.8
20260903104021 22 166 0.0 0.0 0.00 0.00 0.00 91 1011.1
20260903103517 22 161 0.0 0.0 0.00 0.00 0.00 91 1010.8
20260903103013 22 161 0.0 0.0 0.00 0.00 0.00 91 1010.8
20260903102508 22 149 0.0 0.0 0.00 0.00 0.00 91 1010.7
20260903102007 22 156 0.0 0.0 0.00 0.00 0.00 91 1010.6
20260903101501 22 160 0.0 0.0 0.00 0.00 0.00 91 1010.5
20260903100957 22 155 0.0 0.0 0.00 0.00 0.00 91 1010.6
20260903100452 22 162 0.0 0.0 0.00 0.00 0.00 91 1010.8
20260903095949 22 150 0.0 0.0 0.00 0.00 0.00 91 1010.5
20260903095443 22 193 1.6 3.2 0.00 0.00 0.00 91 1010.6
20260903094939 22 158 0.0 0.0 0.00 0.00 0.00 91 1010.5
20260903094438 22 157 0.0 0.0 0.00 0.00 0.00 91 1010.7
20260903093935 22 164 0.0 0.0 0.00 0.00 0.00 91 1010.4
20260903093429 22 164 0.0 0.0 0.00 0.00 0.00 92 1010.4
20260903092925 22 164 0.0 0.0 0.00 0.00 0.00 91 1010.6
20260903092425 22 164 0.0 0.0 0.00 0.00 0.00 91 1010.6
20260903091924 22 164 0.0 0.0 0.00 0.00 0.00 91 1010.5
20260903091422 22 164 0.0 0.0 0.00 0.00 0.00 91 1010.6
20260903090918 22 156 0.0 0.0 0.00 0.00 0.00 91 1010.4
20260903090413 22 156 0.0 0.0 0.00 0.00 0.00 91 1010.3
20260903085912 22 156 0.0 0.0 0.00 0.00 0.00 91 1010.2
20260903085410 22 156 0.0 0.0 0.00 0.00 0.00 90 1010.2
20260903084910 22 156 0.0 0.0 0.00 0.00 0.00 90 1010.3
20260903084409 22 156 0.0 0.0 0.00 0.00 0.00 90 1010.4
20260903083904 22 156 0.0 0.0 0.00 0.00 0.00 90 1010.4
20260903083400 22 156 0.0 0.0 0.00 0.00 0.00 90 1010.5
20260903082854 22 156 0.0 0.0 0.00 0.00 0.00 90 1010.6
20260903082349 22 156 0.0 0.0 0.00 0.00 0.00 89 1010.6
20260903081844 22 156 0.0 0.0 0.00 0.00 0.00 89 1010.8
20260903081339 22 156 0.0 0.0 0.00 0.00 0.00 88 1010.5
20260903080836 22 152 0.0 0.0 0.00 0.00 0.00 88 1010.4
20260903080333 22 157 0.0 0.0 0.00 0.00 0.00 88 1010.6
20260903075832 22 157 0.0 0.0 0.00 0.00 0.00 88 1010.4
20260903075327 22 157 0.0 0.0 0.00 0.00 0.00 87 1010.7
20260903074827 23 158 0.0 0.0 0.00 0.00 0.00 87 1010.7
20260903074327 23 158 0.0 0.0 0.00 0.00 0.00 87 1010.7
20260903073822 23 158 0.0 0.0 0.00 0.00 0.00 87 1010.8
20260903073317 23 162 0.0 0.0 0.00 0.00 0.00 87 1010.9
20260903072814 23 151 0.0 0.0 0.00 0.00 0.00 86 1011.0
20260903072309 23 151 0.0 0.0 0.00 0.00 0.00 86 1010.9
20260903071806 23 151 0.0 0.0 0.00 0.00 0.00 86 1011.0
20260903071301 23 148 0.0 0.0 0.00 0.00 0.00 86 1011.0
20260903070755 23 151 0.0 0.0 0.00 0.00 0.00 86 1010.9
20260903070251 23 164 0.0 0.0 0.00 0.00 0.00 86 1011.0
20260903065746 23 161 0.0 0.0 0.00 0.00 0.00 86 1010.9
20260903065245 23 164 0.0 0.0 0.00 0.00 0.00 85 1010.9
20260903064744 23 164 0.0 0.0 0.00 0.00 0.00 85 1011.0
20260903064240 23 164 0.0 0.0 0.00 0.00 0.00 85 1011.0
20260903063736 23 164 0.0 0.0 0.00 0.00 0.00 85 1011.1
20260903063231 23 164 0.0 0.0 0.00 0.00 0.00 85 1011.0
20260903062727 23 164 0.0 0.0 0.00 0.00 0.00 84 1011.0
20260903062226 23 164 0.0 0.0 0.00 0.00 0.00 84 1011.2
20260903061723 23 164 0.0 0.0 0.00 0.00 0.00 83 1011.2
20260903061221 23 164 0.0 0.0 0.00 0.00 0.00 83 1011.2
20260903060717 23 154 0.0 0.0 0.00 0.00 0.00 83 1011.1
20260903060212 23 160 0.0 0.0 0.00 0.00 0.00 82 1011.1
20260903055709 23 163 0.0 0.0 0.00 0.00 0.00 82 1011.1
20260903055208 24 163 0.0 0.0 0.00 0.00 0.00 81 1011.2
20260903054703 24 162 0.0 0.0 0.00 0.00 0.00 81 1011.0
20260903054158 24 177 0.0 0.0 0.00 0.00 0.00 81 1011.2
20260903053654 24 177 0.0 0.0 0.00 0.00 0.00 81 1011.2
20260903053149 24 177 0.0 0.0 0.00 0.00 0.00 81 1011.2
20260903052645 24 161 0.0 0.0 0.00 0.00 0.00 80 1011.0
20260903052141 24 158 0.0 0.0 0.00 0.00 0.00 80 1010.9
20260903051635 24 150 0.0 0.0 0.00 0.00 0.00 80 1011.2
20260903051131 25 159 0.0 0.0 0.00 0.00 0.00 80 1011.0
20260903050626 25 155 0.0 0.0 0.00 0.00 0.00 79 1011.1
20260903050121 25 160 0.0 0.0 0.00 0.00 0.00 79 1011.1
20260903045620 25 156 0.0 0.0 0.00 0.10 0.10 79 1011.4
20260903045117 25 158 0.0 0.0 0.00 0.10 0.10 78 1011.4
20260903044612 25 163 0.0 0.0 0.00 0.10 0.10 78 1011.4
20260903044108 25 155 0.0 0.0 0.00 0.10 0.10 78 1011.2
20260903043604 25 163 0.0 0.0 0.00 0.10 0.10 78 1011.3
20260903043103 25 165 0.0 0.0 0.00 0.10 0.10 78 1011.4
20260903042557 25 160 0.0 0.0 0.00 0.10 0.10 77 1011.5
20260903042053 25 161 0.0 0.0 0.00 0.10 0.10 77 1011.7
20260903041549 25 152 0.0 0.0 0.00 0.10 0.10 77 1011.5
20260903041045 25 153 0.0 0.0 0.00 0.10 0.10 76 1011.4
20260903040543 25 173 0.0 0.0 0.00 0.10 0.10 76 1011.4
20260903040040 25 155 0.0 0.0 0.00 0.10 0.10 75 1011.4
20260903035541 25 148 0.0 0.0 0.00 0.10 0.10 75 1011.4
20260903035037 25 164 0.0 0.0 0.00 0.10 0.10 74 1011.5
20260903034537 25 151 0.0 0.0 0.00 0.10 0.10 74 1011.7
20260903034032 25 151 0.0 0.0 0.00 0.10 0.10 75 1011.4
20260903033527 25 129 0.0 0.0 0.00 0.10 0.10 75 1011.6
20260903033022 25 152 0.0 0.0 0.00 0.10 0.10 75 1011.6